Location: Caltech
(34.1382°N, 118.1253°W)
Time: 17:59:19
(UTC-07:00)

JAS-2 - Visible Passes

Search period start: 30 July 2015 00:00
Search period end: 09 August 2015 00:00
Orbit: 801 x 1321 km, 98.5° (Epoch: 30 July)

Date Brightness Start Highest point End Pass type
(mag) Time Alt. Az. Time Alt. Az. Time Alt. Az.
30 Jul 11.5 03:09:25 10° NE 03:16:06 31° E 03:22:08 13° SSE visible
30 Jul 10.4 04:53:48 10° N 05:01:18 50° WNW 05:08:36 10° SW visible
31 Jul 12.4 02:19:21 10° ENE 02:20:08 10° E 02:21:43 10° E visible
31 Jul 10.3 03:58:40 10° NNE 04:06:32 72° E 04:12:48 17° S visible
01 Aug 11.6 03:04:42 10° NE 03:11:13 29° E 03:16:59 13° SSE visible
01 Aug 10.4 04:48:54 10° N 04:56:30 53° WNW 05:03:28 12° SW visible
02 Aug 10.3 03:53:52 10° NNE 04:01:43 68° E 04:07:39 18° S visible
03 Aug 11.6 03:00:02 10° NE 03:06:20 27° E 03:11:50 13° SE visible
03 Aug 10.3 04:44:02 10° N 04:51:43 56° WNW 04:58:19 13° SW visible
04 Aug 10.4 03:49:04 10° NNE 03:56:53 64° E 04:02:30 20° S visible
04 Aug 11.2 05:35:08 10° NNW 05:41:20 25° WNW 05:47:08 10° WSW visible
05 Aug 11.7 02:55:23 10° NE 03:01:26 25° E 03:06:40 13° SE visible
05 Aug 10.2 04:39:11 10° N 04:46:55 60° WNW 04:53:09 15° SSW visible
06 Aug 10.5 03:44:17 10° NNE 03:52:03 60° E 03:57:20 21° S visible
06 Aug 11.1 05:30:12 10° NNW 05:36:33 27° WNW 05:42:28 10° WSW visible
07 Aug 11.8 02:50:45 10° NE 02:56:32 23° E 03:01:30 13° SE visible
07 Aug 10.1 04:34:20 10° N 04:42:07 63° WNW 04:47:59 17° SSW visible
08 Aug 10.5 03:39:32 10° NNE 03:47:12 56° E 03:52:09 22° S visible
08 Aug 11.0 05:25:17 10° N 05:31:46 28° WNW 05:37:47 10° WSW visible
